Regional Weather Roundup
Issued by NWS Huntsville, AL

Home | Current Version | Previous Version | Text Only | Print | Product List | Glossary On
Versions: 1 2 3 4 5 6 7 8 9 10 11 12 13 14 15 16 17 18 19 20 21 22 23 24 25 26 27 28 29 30 31 32 33 34 35 36 37 38 39 40 41 42 43 44 45 46 47 48 49 50
000
ASUS44 KHUN 221110
RWRHUN

WEATHER ROUNDUP FOR THE TENNESSEE VALLEY
NATIONAL WEATHER SERVICE HUNTSVILLE AL
500 AM CST MON DEC 22 2014

ALZ001>004-221200-
NORTHWEST ALABAMA

CITY           SKY/WX    TMP DP  RH WIND       PRES   REMARKS
COURTLAND HCN    N/A     48 N/A N/A SE3         N/A
RUSSELLVILLE     N/A     50 N/A N/A MISG        N/A
SHOALS AIRPORT CLOUDY    50  46  86 E8        29.95S FOG
SHOALS TVA RES   N/A     48 N/A N/A MISG        N/A
$$

ALZ005>007-016-221200-
NORTH CENTRAL ALABAMA

CITY           SKY/WX    TMP DP  RH WIND       PRES   REMARKS
CULLMAN AG STN   N/A     48 N/A N/A SE5         N/A
DECATUR AP     CLOUDY    49  45  86 S7        29.98R
HUNTSVILLE AP  CLOUDY    50  45  83 SE10      29.96F
HUN NWS/UAH      N/A     49  44  82 SE8         N/A
MERIDIANVILLE  CLOUDY    48  41  76 SE8       29.95F
REDSTONE ARSN  CLOUDY    50  46  87 SE9       29.96S
VINEMONT AP    CLOUDY    46  46  97 SE6       29.98R FOG
$$

ALZ008>010-221200-
NORTHEAST ALABAMA

CITY           SKY/WX    TMP DP  RH WIND       PRES   REMARKS
ALBERTVILLE    CLOUDY    46  46 100 SE5       29.96S FOG
FORT PAYNE     CLOUDY    46  41  81 SE6       29.98F
SCOTTSBORO AP  CLOUDY    48  45  87 CALM      29.99F
VALLEY HEAD      N/A     46 N/A N/A MISG        N/A
$$

TNZ076-096-097-221200-
SOUTHEASTERN MIDDLE TENNESSEE

CITY           SKY/WX    TMP DP  RH WIND       PRES   REMARKS
TULLAHOMA      CLOUDY    46  43  87 SE8       29.96F
WINCHESTER     CLOUDY    46  43  87 SE6       29.97F
$$

...SURROUNDING SITES...

CITY           SKY/WX    TMP DP  RH WIND       PRES   REMARKS
ATLANTA        DRZL/FOG  46  43  89 E15       30.02F VSB 1
ANNISTON       CLOUDY    49  46  90 E8        30.00R
BIRMINGHAM     CLOUDY    50  47  89 E3        29.98R
CHATTANOOGA    CLOUDY    46  40  79 CALM      30.02S
CORINTH        CLOUDY    50  46  87 SE5       29.89S
DALTON         CLOUDY    46  43  87 CALM      30.02R
GADSDEN        CLOUDY    48  45  87 E5        29.99S
GOLDEN TRNGL   CLOUDY    52  48  87 SE9       29.91S
HALEYVILLE     CLOUDY    47  47 100 SE5       29.97R FOG
JACKSON TN     CLOUDY    50  45  83 S7        29.88F
LEWISBURG      CLOUDY    48  44  86 SE3       29.95F
MEMPHIS        DRZL/FOG  49  47  93 S8        29.84F VSB 1
MURFREESBORO   CLOUDY    48  44  86 SE5       29.96F
NASHVILLE      CLOUDY    48  44  86 SE7       29.96S
OXFORD MS      CLOUDY    46  46 100 SE7       29.89S FOG
ROME           CLOUDY    47  43  86 SE6       30.01S
SAVANNAH       CLOUDY    48  48 100 SE3       29.89F
TUPELO         CLOUDY    50  47  89 S9G16     29.89F
TUSCALOOSA     CLOUDY    52  50  93 SE3       29.96R FOG
$$

...GULF COAST WEATHER...

CITY           SKY/WX    TMP DP  RH WIND       PRES   REMARKS
GULFPORT       CLOUDY    58  56  93 E6        29.87S
PASCAGOULA     CLOUDY    58  56  93 E3        29.88S
MOBILE         CLOUDY    54  54 100 E8        29.89R
GULF SHORES    LGT RAIN  56  56  99 E13       29.87F
DESTIN         RAIN      56  55  97 NE5       29.94R
APPALACHICOLA  LGT RAIN  63  60  90 NE6       29.92S VSB 1/4
$$



USA.gov is the U.S. government's official web portal to all federal, state and local government web resources and services.